SKY508 ROAH-RJFF

Flight info

Callsign SKY508
Flight time 1h 15m
Altitude 35000
Route AMAMI Y25 ISKUP
Aircraft B738/M-SDE2E3FGHIRWXY/LB1

Departure

Time 2026-04-26 11:10
Airport Naha International Airport (ROAH)

Arrival

Time 2026-04-26 12:26
Airport Fukuoka Airport (RJFF)
Time Latitude Longitude Altitude Speed Heading
2026-04-26 10:58 26.20442 127.64867 27 ft 0 kts 47°
2026-04-26 11:02 26.20441 127.64866 28 ft 2 kts 47°
2026-04-26 11:02 26.20430 127.64853 28 ft 2 kts 47°
2026-04-26 11:03 26.20418 127.64840 28 ft 2 kts 19°
2026-04-26 11:03 26.20402 127.64838 28 ft 2 kts
2026-04-26 11:03 26.20386 127.64838 28 ft 2 kts
2026-04-26 11:03 26.20370 127.64837 28 ft 2 kts 350°
2026-04-26 11:04 26.20356 127.64846 28 ft 2 kts 287°
2026-04-26 11:04 26.20355 127.64864 28 ft 2 kts 267°
2026-04-26 11:04 26.20355 127.64867 27 ft 0 kts 267°
2026-04-26 11:05 26.20353 127.64834 27 ft 9 kts 266°
2026-04-26 11:06 26.20316 127.64768 27 ft 12 kts 204°
2026-04-26 11:06 26.20258 127.64761 27 ft 13 kts 176°
2026-04-26 11:06 26.20110 127.64769 27 ft 21 kts 177°
2026-04-26 11:06 26.19936 127.64777 27 ft 28 kts 178°
2026-04-26 11:07 26.19733 127.64787 27 ft 29 kts 178°
2026-04-26 11:07 26.19538 127.64795 27 ft 27 kts 178°
2026-04-26 11:07 26.19355 127.64804 27 ft 25 kts 178°
2026-04-26 11:07 26.19174 127.64812 28 ft 28 kts 178°
2026-04-26 11:08 26.18983 127.64821 28 ft 27 kts 177°
2026-04-26 11:08 26.18804 127.64830 28 ft 25 kts 178°
2026-04-26 11:08 26.18637 127.64838 28 ft 23 kts 178°
2026-04-26 11:08 26.18479 127.64845 28 ft 23 kts 177°
2026-04-26 11:09 26.18317 127.64853 28 ft 20 kts 180°
2026-04-26 11:09 26.18242 127.64755 27 ft 19 kts 266°
2026-04-26 11:09 26.18298 127.64648 27 ft 18 kts 350°
2026-04-26 11:09 26.18475 127.64638 29 ft 51 kts 358°
2026-04-26 11:10 26.19089 127.64609 28 ft 123 kts 358°
2026-04-26 11:10 26.20151 127.64558 115 ft 174 kts 359°
2026-04-26 11:10 26.21354 127.64550 935 ft 176 kts 359°
2026-04-26 11:10 26.22602 127.64535 1768 ft 182 kts 358°
2026-04-26 11:11 26.23903 127.64486 2505 ft 189 kts 356°
2026-04-26 11:11 26.25291 127.64349 2904 ft 211 kts 343°
2026-04-26 11:11 26.26623 127.63621 3383 ft 216 kts 328°
2026-04-26 11:11 26.27966 127.62755 3781 ft 233 kts 328°
2026-04-26 11:12 26.29446 127.61809 4071 ft 255 kts 328°
2026-04-26 11:12 26.31013 127.60814 4734 ft 261 kts 328°
2026-04-26 11:12 26.32759 127.60217 5109 ft 270 kts 358°
2026-04-26 11:12 26.34662 127.60416 5833 ft 278 kts
2026-04-26 11:13 26.36603 127.60679 6566 ft 284 kts
2026-04-26 11:13 26.38578 127.60950 7281 ft 288 kts
2026-04-26 11:13 26.40577 127.61220 8052 ft 290 kts
2026-04-26 11:13 26.42592 127.61486 8830 ft 293 kts
2026-04-26 11:14 26.44603 127.61747 9574 ft 296 kts
2026-04-26 11:14 26.46665 127.62010 10272 ft 301 kts
2026-04-26 11:14 26.48819 127.62277 10498 ft 323 kts
2026-04-26 11:14 26.50364 127.62467 10619 ft 338 kts
2026-04-26 11:15 26.53571 127.63079 10844 ft 371 kts 16°
2026-04-26 11:15 26.55890 127.64464 11293 ft 386 kts 34°
2026-04-26 11:15 26.57934 127.66437 11929 ft 391 kts 39°
2026-04-26 11:15 26.59954 127.68502 12528 ft 395 kts 40°
2026-04-26 11:16 26.61987 127.70607 13137 ft 400 kts 40°
2026-04-26 11:16 26.64038 127.72728 13755 ft 404 kts 40°
2026-04-26 11:16 26.66117 127.74862 14333 ft 408 kts 39°
2026-04-26 11:16 26.68224 127.77010 14895 ft 412 kts 39°
2026-04-26 11:17 26.70364 127.79180 15455 ft 417 kts 39°
2026-04-26 11:17 26.72527 127.81367 16043 ft 421 kts 39°
2026-04-26 11:17 26.73972 127.82825 16418 ft 424 kts 39°
2026-04-26 11:17 26.76897 127.85776 17148 ft 430 kts 39°
2026-04-26 11:18 26.79126 127.88024 17684 ft 434 kts 39°
2026-04-26 11:18 26.81378 127.90297 18230 ft 438 kts 39°
2026-04-26 11:18 26.82908 127.91842 18550 ft 440 kts 39°
2026-04-26 11:18 26.85195 127.94152 18998 ft 444 kts 39°
2026-04-26 11:19 26.87470 127.96451 19421 ft 449 kts 38°
2026-04-26 11:19 26.89796 127.98804 19856 ft 453 kts 38°
2026-04-26 11:19 26.92144 128.01180 20288 ft 456 kts 38°
2026-04-26 11:19 26.94513 128.03580 20710 ft 461 kts 38°
2026-04-26 11:20 26.96903 128.06002 21118 ft 465 kts 38°
2026-04-26 11:20 26.99316 128.08448 21514 ft 469 kts 38°
2026-04-26 11:20 27.01746 128.10913 21934 ft 473 kts 38°
2026-04-26 11:20 27.04194 128.13400 22327 ft 476 kts 38°
2026-04-26 11:21 27.06659 128.15904 22700 ft 481 kts 38°
2026-04-26 11:21 27.09153 128.18438 23073 ft 484 kts 38°
2026-04-26 11:21 27.11653 128.20981 23466 ft 487 kts 38°
2026-04-26 11:21 27.14179 128.23553 23787 ft 491 kts 38°
2026-04-26 11:22 27.16681 128.26101 24093 ft 494 kts 38°
2026-04-26 11:22 27.19236 128.28705 24415 ft 496 kts 38°
2026-04-26 11:22 27.21799 128.31320 24751 ft 498 kts 38°
2026-04-26 11:22 27.24369 128.33942 25062 ft 501 kts 38°
2026-04-26 11:23 27.26956 128.36584 25355 ft 504 kts 38°
2026-04-26 11:23 27.29553 128.39237 25650 ft 506 kts 38°
2026-04-26 11:23 27.32168 128.41911 25966 ft 508 kts 38°
2026-04-26 11:23 27.34791 128.44595 26254 ft 511 kts 38°
2026-04-26 11:24 27.37425 128.47291 26529 ft 513 kts 38°
2026-04-26 11:24 27.40048 128.49979 26804 ft 516 kts 38°
2026-04-26 11:24 27.42706 128.52704 27099 ft 518 kts 38°
2026-04-26 11:24 27.45375 128.55442 27374 ft 520 kts 38°
2026-04-26 11:25 27.48055 128.58193 27625 ft 523 kts 38°
2026-04-26 11:25 27.50748 128.60960 27874 ft 525 kts 38°
2026-04-26 11:25 27.53453 128.63740 28154 ft 527 kts 38°
2026-04-26 11:25 27.56165 128.66530 28416 ft 528 kts 38°
2026-04-26 11:26 27.58887 128.69333 28657 ft 531 kts 38°
2026-04-26 11:26 27.61622 128.72151 28886 ft 533 kts 38°
2026-04-26 11:26 27.64366 128.74980 29168 ft 534 kts 38°
2026-04-26 11:26 27.67116 128.77817 29531 ft 533 kts 38°
2026-04-26 11:27 27.69813 128.80603 29914 ft 532 kts 38°
2026-04-26 11:27 27.72546 128.83428 30239 ft 532 kts 38°
2026-04-26 11:27 27.75271 128.86246 30549 ft 532 kts 38°
2026-04-26 11:27 27.78005 128.89074 30834 ft 532 kts 38°
2026-04-26 11:28 27.80733 128.91898 31098 ft 533 kts 39°
2026-04-26 11:28 27.83471 128.94734 31377 ft 533 kts 39°
2026-04-26 11:28 27.86202 128.97566 31702 ft 533 kts 39°
2026-04-26 11:28 27.88934 129.00400 32012 ft 532 kts 39°
2026-04-26 11:29 27.91666 129.03237 32249 ft 534 kts 39°
2026-04-26 11:29 27.94403 129.06080 32496 ft 535 kts 39°
2026-04-26 11:29 27.97144 129.08930 32808 ft 534 kts 39°
2026-04-26 11:29 27.99880 129.11777 33113 ft 534 kts 39°
2026-04-26 11:30 28.02615 129.14625 33388 ft 534 kts 39°
2026-04-26 11:30 28.04427 129.16514 33567 ft 535 kts 39°
2026-04-26 11:30 28.08058 129.20299 33907 ft 536 kts 39°
2026-04-26 11:30 28.10799 129.23159 34143 ft 536 kts 39°
2026-04-26 11:31 28.13539 129.26021 34412 ft 535 kts 39°
2026-04-26 11:31 28.16271 129.28877 34694 ft 534 kts 39°
2026-04-26 11:31 28.19002 129.31733 34972 ft 534 kts 39°
2026-04-26 11:31 28.21735 129.34593 34976 ft 539 kts 39°
2026-04-26 11:32 28.27258 129.40379 34982 ft 538 kts 40°
2026-04-26 11:32 28.32723 129.46117 34959 ft 532 kts 40°
2026-04-26 11:33 28.38155 129.51824 34955 ft 531 kts 40°
2026-04-26 11:33 28.43932 129.56818 34943 ft 520 kts 22°
2026-04-26 11:34 28.50640 129.59538 34949 ft 507 kts
2026-04-26 11:34 28.57638 129.60555 34960 ft 508 kts 359°
2026-04-26 11:35 28.64675 129.61524 34962 ft 509 kts 359°
2026-04-26 11:35 28.71697 129.62567 34963 ft 509 kts
2026-04-26 11:36 28.78715 129.63650 34972 ft 508 kts
2026-04-26 11:36 28.85710 129.64731 34969 ft 506 kts
2026-04-26 11:37 28.92684 129.65806 34972 ft 505 kts
2026-04-26 11:37 28.99591 129.66869 34968 ft 503 kts
2026-04-26 11:38 29.06517 129.67937 34965 ft 501 kts
2026-04-26 11:38 29.13422 129.69003 34966 ft 500 kts
2026-04-26 11:39 29.20305 129.70042 34968 ft 499 kts 360°
2026-04-26 11:39 29.27185 129.71066 34962 ft 498 kts 360°
2026-04-26 11:40 29.34054 129.72097 34962 ft 497 kts
2026-04-26 11:40 29.40910 129.73141 34959 ft 497 kts
2026-04-26 11:41 29.44333 129.73671 35071 ft 496 kts
2026-04-26 11:42 29.68016 129.77353 34950 ft 486 kts
2026-04-26 11:43 29.74689 129.78390 34945 ft 483 kts
2026-04-26 11:43 29.81341 129.79425 34943 ft 481 kts
2026-04-26 11:44 29.87982 129.80459 34947 ft 481 kts
2026-04-26 11:44 29.94612 129.81494 34953 ft 481 kts
2026-04-26 11:45 30.01262 129.82530 34954 ft 482 kts
2026-04-26 11:45 30.07885 129.83302 34945 ft 481 kts 359°
2026-04-26 11:46 30.14559 129.83960 34946 ft 482 kts 359°
2026-04-26 11:46 30.21249 129.84666 34937 ft 483 kts 359°
2026-04-26 11:47 30.27941 129.85402 34934 ft 483 kts 359°
2026-04-26 11:47 30.34634 129.86137 34933 ft 483 kts 359°
2026-04-26 11:48 30.41331 129.86868 34932 ft 483 kts 359°
2026-04-26 11:48 30.48010 129.87596 34932 ft 482 kts 360°
2026-04-26 11:49 30.54677 129.88325 34929 ft 481 kts 360°
2026-04-26 11:49 30.61330 129.89054 34928 ft 480 kts 360°
2026-04-26 11:50 30.67981 129.89783 34927 ft 479 kts 360°
2026-04-26 11:50 30.74607 129.90511 34925 ft 477 kts 360°
2026-04-26 11:51 30.81170 129.91233 34924 ft 476 kts 360°
2026-04-26 11:51 30.87665 129.91948 34926 ft 476 kts 360°
2026-04-26 11:52 30.93138 129.92549 34928 ft 475 kts 360°
2026-04-26 11:52 31.00833 129.93396 34929 ft 474 kts 360°
2026-04-26 11:53 31.07411 129.94122 34924 ft 474 kts 360°
2026-04-26 11:54 31.17250 129.95209 34926 ft 473 kts 360°
2026-04-26 11:54 31.23801 129.95934 34923 ft 472 kts 360°
2026-04-26 11:55 31.30301 129.96645 34929 ft 472 kts 359°
2026-04-26 11:55 31.36835 129.97183 34933 ft 470 kts 358°
2026-04-26 11:56 31.43362 129.97658 34931 ft 470 kts 358°
2026-04-26 11:56 31.49882 129.98153 34930 ft 469 kts 358°
2026-04-26 11:57 31.56403 129.98665 34926 ft 469 kts 359°
2026-04-26 11:57 31.62913 129.99182 34924 ft 468 kts 359°
2026-04-26 11:58 31.69410 129.99698 34928 ft 467 kts 359°
2026-04-26 11:58 31.75897 130.00213 34926 ft 467 kts 359°
2026-04-26 11:59 31.82378 130.00727 34929 ft 467 kts 359°
2026-04-26 11:59 31.88814 130.01239 34805 ft 468 kts 359°
2026-04-26 11:59 31.92089 130.01499 34198 ft 471 kts 359°
2026-04-26 12:00 31.95346 130.01760 33494 ft 468 kts 359°
2026-04-26 12:00 31.98590 130.02020 32744 ft 466 kts 359°
2026-04-26 12:00 32.01805 130.02278 31959 ft 464 kts 359°
2026-04-26 12:00 32.05013 130.02535 31502 ft 456 kts 359°
2026-04-26 12:01 32.08149 130.02788 30972 ft 450 kts 359°
2026-04-26 12:01 32.11254 130.03039 30514 ft 443 kts 359°
2026-04-26 12:01 32.14300 130.03284 30060 ft 436 kts 359°
2026-04-26 12:01 32.17310 130.03526 29544 ft 430 kts 359°
2026-04-26 12:02 32.20272 130.03763 29055 ft 423 kts 359°
2026-04-26 12:02 32.22207 130.03919 28786 ft 418 kts 359°
2026-04-26 12:02 32.26050 130.04227 28176 ft 409 kts 359°
2026-04-26 12:02 32.28888 130.04454 27764 ft 410 kts 360°
2026-04-26 12:03 32.31760 130.04680 27335 ft 416 kts 360°
2026-04-26 12:03 32.34652 130.04910 26895 ft 417 kts
2026-04-26 12:03 32.37530 130.05142 26448 ft 413 kts
2026-04-26 12:03 32.40388 130.05374 26029 ft 410 kts
2026-04-26 12:04 32.43222 130.05604 25604 ft 407 kts
2026-04-26 12:04 32.46006 130.05828 25188 ft 405 kts
2026-04-26 12:04 32.48817 130.06055 24778 ft 405 kts
2026-04-26 12:04 32.51662 130.06285 24353 ft 404 kts
2026-04-26 12:05 32.54463 130.06511 23914 ft 403 kts
2026-04-26 12:05 32.57217 130.06734 23502 ft 401 kts
2026-04-26 12:05 32.59096 130.06865 23167 ft 400 kts 358°
2026-04-26 12:05 32.62731 130.06531 22566 ft 393 kts 346°
2026-04-26 12:06 32.64530 130.06077 22288 ft 390 kts 345°
2026-04-26 12:06 32.67170 130.05370 21878 ft 388 kts 345°
2026-04-26 12:06 32.69800 130.04662 21468 ft 386 kts 345°
2026-04-26 12:06 32.72411 130.03972 21072 ft 384 kts 345°
2026-04-26 12:07 32.75012 130.03300 20673 ft 382 kts 345°
2026-04-26 12:07 32.77604 130.02637 20282 ft 380 kts 346°
2026-04-26 12:07 32.80185 130.01978 19900 ft 378 kts 346°
2026-04-26 12:07 32.82785 130.01318 19680 ft 391 kts 346°
2026-04-26 12:08 32.85509 130.00626 19397 ft 405 kts 346°
2026-04-26 12:08 32.88277 129.99926 19096 ft 406 kts 346°
2026-04-26 12:08 32.91038 129.99229 18813 ft 404 kts 346°
2026-04-26 12:08 32.93779 129.98536 18525 ft 402 kts 346°
2026-04-26 12:09 32.96508 129.97846 18248 ft 400 kts 346°
2026-04-26 12:09 32.99228 129.97156 17922 ft 399 kts 346°
2026-04-26 12:09 33.01906 129.96475 17629 ft 398 kts 346°
2026-04-26 12:09 33.04610 129.95788 17333 ft 396 kts 346°
2026-04-26 12:10 33.07299 129.95104 17048 ft 395 kts 346°
2026-04-26 12:10 33.09982 129.94421 16777 ft 394 kts 346°
2026-04-26 12:10 33.12657 129.93739 16493 ft 393 kts 346°
2026-04-26 12:10 33.15326 129.93059 16214 ft 392 kts 346°
2026-04-26 12:11 33.17996 129.92379 15938 ft 391 kts 346°
2026-04-26 12:11 33.20705 129.91917 15582 ft 394 kts 356°
2026-04-26 12:11 33.23449 129.91988 15251 ft 395 kts
2026-04-26 12:11 33.26156 129.92175 14915 ft 395 kts
2026-04-26 12:12 33.28892 129.92388 14569 ft 393 kts
2026-04-26 12:12 33.31613 129.92606 14235 ft 390 kts
2026-04-26 12:12 33.34316 129.92824 13954 ft 387 kts
2026-04-26 12:12 33.36125 129.92971 13773 ft 385 kts
2026-04-26 12:13 33.39650 129.93254 13381 ft 381 kts
2026-04-26 12:13 33.42291 129.93463 13129 ft 379 kts
2026-04-26 12:13 33.44930 129.93667 13031 ft 380 kts
2026-04-26 12:13 33.47579 129.93868 12618 ft 380 kts
2026-04-26 12:14 33.50194 129.94060 12189 ft 373 kts
2026-04-26 12:14 33.52760 129.94245 11764 ft 365 kts
2026-04-26 12:14 33.55274 129.94419 11350 ft 359 kts
2026-04-26 12:14 33.57720 129.94582 10968 ft 343 kts
2026-04-26 12:15 33.60044 129.94731 10682 ft 325 kts
2026-04-26 12:15 33.62245 129.94868 10432 ft 309 kts
2026-04-26 12:15 33.64343 129.94993 10181 ft 295 kts
2026-04-26 12:15 33.66348 129.95109 9935 ft 284 kts
2026-04-26 12:16 33.68312 129.95217 9602 ft 282 kts
2026-04-26 12:16 33.70271 129.95320 9249 ft 282 kts
2026-04-26 12:16 33.72139 129.95850 8866 ft 282 kts 26°
2026-04-26 12:16 33.73647 129.97343 8470 ft 283 kts 52°
2026-04-26 12:17 33.74649 129.99351 8086 ft 277 kts 60°
2026-04-26 12:17 33.75520 130.01388 7683 ft 272 kts 62°
2026-04-26 12:17 33.76362 130.03405 7284 ft 268 kts 62°
2026-04-26 12:17 33.77194 130.05409 6909 ft 269 kts 62°
2026-04-26 12:18 33.78033 130.07439 6531 ft 272 kts 62°
2026-04-26 12:18 33.78868 130.09466 6129 ft 268 kts 62°
2026-04-26 12:18 33.79689 130.11460 5716 ft 264 kts 62°
2026-04-26 12:18 33.80498 130.13419 5304 ft 259 kts 62°
2026-04-26 12:19 33.81300 130.15354 4927 ft 260 kts 62°
2026-04-26 12:19 33.81936 130.17398 4503 ft 265 kts 81°
2026-04-26 12:19 33.81809 130.19608 4123 ft 265 kts 99°
2026-04-26 12:19 33.81413 130.21751 3708 ft 261 kts 102°
2026-04-26 12:20 33.80982 130.23856 3275 ft 258 kts 107°
2026-04-26 12:20 33.80192 130.25750 2858 ft 256 kts 120°
2026-04-26 12:20 33.79247 130.27544 2437 ft 252 kts 122°
2026-04-26 12:20 33.78303 130.29308 2063 ft 250 kts 122°
2026-04-26 12:21 33.77381 130.31030 2003 ft 239 kts 122°
2026-04-26 12:21 33.76379 130.32559 1974 ft 229 kts 140°
2026-04-26 12:21 33.75120 130.33637 1982 ft 217 kts 145°
2026-04-26 12:21 33.73859 130.34582 1984 ft 209 kts 148°
2026-04-26 12:22 33.72649 130.35426 1994 ft 193 kts 148°
2026-04-26 12:22 33.71522 130.36200 1990 ft 183 kts 148°
2026-04-26 12:22 33.70421 130.36956 1991 ft 181 kts 148°
2026-04-26 12:22 33.69344 130.37695 1993 ft 175 kts 148°
2026-04-26 12:23 33.68303 130.38409 1954 ft 173 kts 148°
2026-04-26 12:23 33.67246 130.39134 1750 ft 174 kts 148°
2026-04-26 12:23 33.66216 130.39840 1521 ft 166 kts 149°
2026-04-26 12:23 33.65230 130.40517 1295 ft 161 kts 149°
2026-04-26 12:24 33.64266 130.41178 1093 ft 156 kts 149°
2026-04-26 12:24 33.63370 130.41794 922 ft 144 kts 149°
2026-04-26 12:24 33.62509 130.42385 704 ft 141 kts 149°
2026-04-26 12:25 33.60806 130.43555 315 ft 141 kts 149°
2026-04-26 12:25 33.59963 130.44126 143 ft 138 kts 150°
2026-04-26 12:25 33.59155 130.44686 27 ft 125 kts 149°
2026-04-26 12:25 33.58577 130.45079 33 ft 64 kts 150°
2026-04-26 12:26 33.58270 130.45287 32 ft 53 kts 149°
2026-04-26 12:26 33.58089 130.45501 34 ft 16 kts 125°
2026-04-26 12:26 33.58077 130.45591 33 ft 7 kts 56°
2026-04-26 12:26 33.58091 130.45605 34 ft 1 kts 31°
2026-04-26 12:27 33.58101 130.45609 34 ft 4 kts 18°
2026-04-26 12:27 33.58150 130.45595 33 ft 9 kts 334°
2026-04-26 12:27 33.58199 130.45564 31 ft 8 kts 330°
2026-04-26 12:27 33.58248 130.45530 32 ft 8 kts 330°
2026-04-26 12:28 33.58295 130.45497 32 ft 8 kts 330°
2026-04-26 12:28 33.58341 130.45466 32 ft 7 kts 330°
2026-04-26 12:28 33.58386 130.45435 30 ft 7 kts 330°
2026-04-26 12:28 33.58432 130.45404 31 ft 9 kts 330°
2026-04-26 12:29 33.58509 130.45352 28 ft 17 kts 330°
2026-04-26 12:29 33.58624 130.45272 27 ft 20 kts 329°
2026-04-26 12:29 33.58861 130.45112 29 ft 19 kts 329°
2026-04-26 12:30 33.58973 130.45034 30 ft 18 kts 330°
2026-04-26 12:30 33.59082 130.44961 25 ft 18 kts 330°
2026-04-26 12:30 33.59190 130.44887 24 ft 19 kts 330°
2026-04-26 12:31 33.59467 130.44699 25 ft 23 kts 331°
2026-04-26 12:31 33.59600 130.44608 26 ft 19 kts 330°
2026-04-26 12:31 33.59677 130.44570 26 ft 11 kts
2026-04-26 12:31 33.59732 130.44603 28 ft 8 kts 11°
2026-04-26 12:32 33.59785 130.44580 25 ft 8 kts 332°
2026-04-26 12:32 33.59833 130.44547 26 ft 8 kts 330°
2026-04-26 12:32 33.59925 130.44486 28 ft 7 kts 341°
2026-04-26 12:33 33.59966 130.44515 27 ft 7 kts 56°
2026-04-26 12:33 33.59979 130.44540 25 ft 0 kts 59°